Weather History for Gary, IN

Change the Weather History Date:

Tuesday, September 30, 2014

  Actual Average Record
Temperature  
Mean Temperature 57 °F -  
Max Temperature 62 °F 71 °F 99 °F (1953)
Min Temperature 53 °F 50 °F 35 °F (2003)
Degree Days  
Heating Degree Days 8    
Growing Degree Days 7 (Base 50)    
Moisture  
Dew Point 50 °F    
Average Humidity 78    
Maximum Humidity 88    
Minimum Humidity 68    
Precipitation  
Precipitation 0.00 in - - ()
Sea Level Pressure  
Sea Level Pressure 30.03 in    
Wind  
Wind Speed 13 mph (NNE)    
Max Wind Speed 17 mph    
Max Gust Speed 25 mph    
Visibility 10 miles    
Events Rain    
Averages and records for this station are not official NWS values.
T = Trace of Precipitation, MM = Missing Value Source: NWS Daily Summary

Daily Weather History Graph

Daily Weather History Graph

Search for Another Location

Airport:

Trip Planner

Search our weather history database for the weather conditions in past years. The results will help you decide how hot, cold, wet, or windy it might be!

Date:

Astronomy

Sep. 30, 2014 Rise Set
Actual Time 6:45 AM CDT 6:33 PM CDT
Civil Twilight 6:17 AM CDT 7:00 PM CDT
Nautical Twilight 5:45 AM CDT 7:32 PM CDT
Astronomical Twilight 5:12 AM CDT 8:05 PM CDT
Moon 12:56 PM CDT (9/30) 10:59 PM CDT (9/30)
Length of Visible Light 12h 42m
Length of Day
11h 47m
Waxing Crescent, 38% of the Moon is Illuminated
Sep 30
Waxing Crescent
Oct 1
First Quarter
Oct 8
Full
Oct 15
Last Quarter
Oct 23
New

Hourly Weather History & Observations

Time (CDT) Temp. Dew Point Humidity Pressure Visibility Wind Dir Wind Speed Gust Speed Precip Events Conditions
12:15 AM 58.5 °F 53.8 °F 84% 30.00 in 10.0 mi North 13.8 mph 21.9 mph N/A Rain Light Rain
12:35 AM 57.7 °F 53.1 °F 84% 30.01 in 10.0 mi North 16.1 mph 23.0 mph N/A   Overcast
12:55 AM 57.4 °F 52.7 °F 84% 30.02 in 10.0 mi North 13.8 mph 24.2 mph N/A   Overcast
1:15 AM 57.4 °F 52.5 °F 84% 30.02 in 10.0 mi NNE 11.5 mph 19.6 mph N/A   Overcast
1:35 AM 56.7 °F 52.0 °F 84% 30.02 in 10.0 mi North 13.8 mph 21.9 mph N/A   Overcast
1:55 AM 57.2 °F 52.0 °F 83% 30.02 in 10.0 mi North 15.0 mph 19.6 mph N/A   Overcast
2:15 AM 56.8 °F 51.3 °F 82% 30.02 in 10.0 mi North 15.0 mph 23.0 mph N/A   Overcast
2:35 AM 56.5 °F 50.2 °F 79% 30.02 in 10.0 mi North 12.7 mph 23.0 mph N/A   Overcast
2:55 AM 56.3 °F 50.2 °F 80% 30.03 in 10.0 mi North 16.1 mph 23.0 mph N/A   Overcast
3:15 AM 56.3 °F 49.8 °F 79% 30.03 in 10.0 mi North 13.8 mph 21.9 mph N/A   Overcast
3:35 AM 55.9 °F 49.3 °F 78% 30.03 in 10.0 mi North 17.3 mph 21.9 mph N/A   Overcast
3:55 AM 55.8 °F 49.1 °F 78% 30.03 in 10.0 mi North 15.0 mph 23.0 mph N/A   Overcast
4:15 AM 55.9 °F 48.7 °F 77% 30.03 in 10.0 mi North 17.3 mph 24.2 mph N/A   Overcast
4:45 AM 55.4 °F 48.2 °F 77% 30.03 in 10.0 mi North 17.3 mph - N/A   Overcast
5:45 AM 53.6 °F 50.0 °F 88% 30.03 in 10.0 mi North 17.3 mph - N/A   Overcast
7:45 AM 55.4 °F 50.0 °F 82% 30.04 in 7.0 mi North 11.5 mph 23.0 mph N/A   Overcast
8:45 AM 53.6 °F 50.0 °F 88% 30.05 in 7.0 mi North 11.5 mph 23.0 mph N/A   Mostly Cloudy
9:45 AM 57.2 °F 50.0 °F 77% 30.05 in 7.0 mi North 13.8 mph 25.3 mph N/A   Mostly Cloudy
10:45 AM 59.0 °F 50.0 °F 72% 30.05 in 10.0 mi North 13.8 mph 25.3 mph N/A   Mostly Cloudy
11:45 AM 59.0 °F 50.0 °F 72% 30.05 in 10.0 mi NNW 17.3 mph - N/A   Mostly Cloudy
12:45 PM 60.8 °F 50.0 °F 68% 30.04 in 10.0 mi North 13.8 mph - N/A   Mostly Cloudy
1:45 PM 60.8 °F 50.0 °F 68% 30.03 in 15.0 mi North 13.8 mph - N/A   Mostly Cloudy
2:45 PM 55.4 °F 51.8 °F 88% 30.03 in 4.0 mi North 11.5 mph 23.0 mph N/A Rain Light Rain
3:45 PM 57.2 °F 51.8 °F 82% 30.02 in 7.0 mi North 11.5 mph 23.0 mph N/A   Overcast
4:45 PM 57.2 °F 48.2 °F 72% 30.01 in 10.0 mi North 5.8 mph - N/A   Overcast
5:45 PM 57.2 °F 48.2 °F 72% 30.01 in 10.0 mi North 17.3 mph - N/A   Overcast
6:45 PM 57.2 °F 48.2 °F 72% 30.01 in 10.0 mi North 9.2 mph - N/A   Overcast
7:45 PM 57.2 °F 48.2 °F 72% 30.01 in 10.0 mi North 4.6 mph - N/A   Overcast
9:15 PM 61.3 °F 56.5 °F 84% 30.01 in 10.0 mi North 11.5 mph - N/A   Overcast
9:35 PM 60.8 °F 56.3 °F 85% 30.01 in 10.0 mi NNE 16.1 mph 19.6 mph N/A   Overcast
9:55 PM 55.9 °F 47.1 °F 72% 30.04 in 10.0 mi ESE 5.8 mph - N/A   Overcast
10:15 PM 55.8 °F 46.4 °F 71% 30.04 in 10.0 mi East 4.6 mph - N/A   Overcast
10:55 PM 54.5 °F 46.4 °F 74% 30.04 in 10.0 mi East 4.6 mph - N/A   Mostly Cloudy
11:15 PM 54.3 °F 46.6 °F 75% 30.03 in 10.0 mi ESE 6.9 mph - N/A   Overcast
11:35 PM 54.1 °F 46.8 °F 76% 30.04 in 10.0 mi ESE 4.6 mph - N/A   Overcast
11:55 PM 59.0 °F 53.6 °F 82% 30.01 in 10.0 mi North 16.1 mph 21.9 mph N/A   Overcast